Location: Vancouver
(49.2500°N, 123.1330°W)
Time: 15:45:38
(UTC-07:00)

ISS - Visible Passes

Search period start: 20 October 2014 00:00
Search period end: 30 October 2014 00:00
Orbit: 413 x 416 km, 51.6° (Epoch: 20 October)

Date Brightness Start Highest point End Pass type
(mag) Time Alt. Az. Time Alt. Az. Time Alt. Az.
20 Oct -3.4 19:47:38 10° WNW 19:51:00 89° N 19:51:51 48° ESE visible
20 Oct 0.3 21:24:42 10° W 21:24:43 10° W 21:24:43 10° W visible
21 Oct -3.2 18:58:36 10° WNW 19:01:57 71° NNE 19:04:50 13° E visible
21 Oct -1.5 20:35:27 10° W 20:37:43 29° WSW 20:37:43 29° WSW visible
22 Oct -2.6 19:46:18 10° WNW 19:49:34 51° SSW 19:50:44 32° SSE visible
23 Oct -3.1 18:57:10 10° WNW 19:00:30 73° SSW 19:03:50 10° ESE visible
23 Oct -0.7 20:34:33 10° W 20:36:42 17° SW 20:36:42 17° SW visible
24 Oct -1.3 19:45:01 10° W 19:47:49 25° SW 19:49:54 14° SSE visible
25 Oct -1.9 18:55:39 10° W 18:58:47 37° SSW 19:01:54 10° SE visible
26 Oct -0.2 19:44:26 10° WSW 19:45:46 12° SW 19:47:06 10° SSW visible
27 Oct -0.5 18:54:21 10° W 18:56:45 19° SW 18:59:09 10° S visible
